Vorticity
10 10 7 10 10 9 8 8 8 7 7 7 8 12 10 14 22 14 14 12 5 4 5 24 35 29 15
9 8 14 8 9 9 9 8 8 9 9 11 11 10 8 10 11 19 15 15 21 24 22 17 10 9 10
17 12 8 8 7 7 8 8 8 8 9 10 10 9 10 9 9 11 11 13 14 11 11 10 11 9 8
7 6 7 7 7 8 9 9 9 8 7 7 7 8 9 11 10 9 8 9 8 7 8 8 9 9 9
7 7 8 8 8 7 8 8 8 8 8 8 9 10 9 9 11 11 11 11 10 9 9 7 7 7 7
7 7 8 8 9 9 9 9 10 10 11 10 10 10 10 10 10 10 11 13 15 16 14 15 18 21 22
8 9 9 10 9 10 11 11 11 11 11 10 10 10 11 12 11 11 11 12 13 14 14 13 12 11 11
9 9 9 10 10 10 11 10 11 11 10 10 11 12 12 13 12 11 10 10 10 11 10 10 9 8 8
11 12 11 10 11 10 10 10 9 10 10 10 11 12 12 13 13 13 12 11 10 10 10 10 9 9 8
11 11 11 11 10 9 9 8 8 9 9 10 10 11 11 11 12 12 12 12 12 11 9 9 9 10 11
11 11 11 10 10 9 8 8 8 8 9 9 9 10 10 12 12 11 12 12 11 11 11 11 12 12 11
12 12 11 10 10 9 8 8 8 8 9 9 9 10 10 11 12 13 13 11 9 9 10 11 12 13 14
11 11 10 9 9 8 8 9 9 9 9 9 9 10 11 11 12 15 14 12 13 12 10 9 10 11 13
11 10 9 9 9 9 9 9 10 9 8 8 9 10 10 11 12 15 13 13 15 14 13 13 14 14 15
13 12 10 10 9 9 8 8 8 8 8 8 9 9 10 11 12 12 11 14 13 12 11 12 14 15 14
16 14 12 11 9 9 8 8 8 8 8 9 9 9 10 12 12 12 15 14 11 10 12 13 14 16 14
16 13 11 10 10 9 7 8 8 7 8 9 10 9 9 11 12 12 14 13 12 12 12 11 11 18 14
Height
3079 3079 3077 3077 3075 3073 3071 3069 3067 3065 3064 3062 3061 3059 3057 3055 3054 3055 3056 3056 3056 3056 3057 3057 3057 3057 3056
3074 3074 3072 3072 3070 3068 3066 3064 3062 3061 3059 3058 3056 3054 3053 3052 3050 3049 3049 3049 3050 3050 3050 3049 3049 3050 3050
3069 3068 3068 3067 3065 3063 3061 3059 3057 3055 3054 3052 3050 3049 3048 3047 3046 3045 3044 3043 3043 3042 3042 3043 3043 3043 3044
3064 3064 3064 3062 3060 3058 3056 3054 3053 3050 3048 3047 3045 3043 3042 3041 3040 3039 3038 3037 3037 3036 3036 3036 3037 3037 3037
3060 3059 3058 3056 3054 3053 3051 3049 3048 3045 3044 3042 3040 3038 3036 3034 3034 3033 3032 3031 3030 3030 3030 3030 3030 3030 3031
3056 3054 3052 3050 3049 3047 3045 3043 3041 3041 3038 3036 3035 3032 3031 3029 3028 3026 3025 3024 3023 3022 3022 3022 3022 3022 3022
3050 3048 3046 3044 3043 3041 3040 3038 3036 3034 3033 3030 3028 3026 3024 3023 3021 3020 3019 3017 3017 3016 3015 3015 3015 3015 3015
3045 3043 3041 3039 3037 3035 3034 3032 3030 3029 3027 3025 3023 3020 3019 3017 3015 3013 3011 3010 3009 3009 3008 3008 3008 3009 3009
3040 3038 3036 3034 3032 3030 3028 3026 3024 3023 3021 3018 3016 3014 3013 3011 3010 3007 3005 3004 3002 3002 3001 3001 3001 3001 3002
3035 3033 3031 3028 3026 3024 3023 3021 3019 3017 3014 3013 3009 3008 3006 3004 3002 3000 2998 2996 2995 2994 2993 2993 2992 2992 2993
3029 3027 3025 3023 3021 3019 3017 3015 3013 3010 3008 3006 3003 3001 2999 2997 2995 2992 2990 2989 2987 2986 2985 2984 2982 2982 2983
3023 3021 3019 3018 3016 3014 3011 3009 3006 3004 3002 2999 2997 2994 2992 2990 2988 2986 2983 2980 2976 2975 2975 2974 2974 2974 2974
3017 3015 3013 3012 3010 3008 3005 3003 3001 2998 2995 2992 2990 2988 2985 2982 2980 2978 2974 2973 2970 2967 2964 2964 2963 2962 2963
3010 3008 3006 3004 3002 3000 2999 2997 2995 2992 2989 2985 2983 2980 2977 2974 2971 2970 2966 2963 2962 2958 2955 2955 2954 2952 2952
3004 3001 2999 2997 2995 2993 2991 2989 2987 2984 2981 2978 2975 2971 2967 2965 2963 2960 2957 2955 2952 2950 2946 2945 2945 2944 2942
2996 2994 2992 2990 2988 2986 2984 2982 2980 2977 2973 2969 2965 2961 2959 2959 2955 2952 2949 2945 2943 2940 2937 2935 2935 2935 2932
2989 2987 2985 2984 2982 2980 2977 2975 2973 2969 2966 2962 2958 2954 2950 2948 2947 2944 2941 2937 2934 2931 2927 2925 2923 2926 2924